Location: Sternwarte ZA, Rosenfeld-Brittheim
(48.2889°N, 8.6789°E)
Time: 05:47:30
(UTC+01:00)

ISS - Pass Details

Date: 07 December 2019
Orbit: 411 x 421 km, 51.6° (Epoch: 15 December)

Event Time Altitude Azimuth Distance (km) Brightness Sun altitude
Rises 17:35:23 0° 291° (WNW) 2,358 0.8 -10.2°
Reaches altitude 10° 17:37:28 10° 293° (WNW) 1,496 -0.3 -10.5°
Maximum altitude 17:40:50 75° 19° (NNE) 436 -3.8 -11.0°
Enters shadow 17:43:44 13° 105° (ESE) 1,314 -1.7 -11.5°
